Tracking 19275 objects as of 12-Nov-2018
HD Live streaming from Space Station
objects crossing your sky now

COSMOS 679

Track COSMOS 679 now!
10-day predictions
COSMOS 679 is classified as:


NORAD ID: 7437
Int'l Code: 1974-072C
Perigee: 1,473.8 km
Apogee: 1,516.7 km
Inclination: 74.0 °
Period: 115.7 minutes
Semi major axis: 7866 km
RCS: 0.7099 m2 (medium)
Launch date: September 19, 1974
Source: Commonwealth of Independent States (former USSR) (CIS)
Launch site: PLESETSK MISSILE AND SPACE COMPLEX (PKMTR)
aabbcc
Your satellite tracking list
Your tracking list is empty




NASA's NSSDC Master Catalog

Two Line Element Set (TLE):
1  7437U 74072C   18315.92612192 -.00000012 +00000-0 +27294-4 0  9993
2  7437 074.0339 278.5052 0027292 048.5731 049.6871 12.44382092005407
Source of the keplerian elements: AFSPC